TimeEDT,TemperatureF,Dew PointF,Humidity,Sea Level PressureIn,VisibilityMPH,Wind Direction,Wind SpeedMPH,Gust SpeedMPH,PrecipitationIn,Events,Conditions,WindDirDegrees,DateUTC
12:57 AM,48.0,41.0,77,30.14,10.0,NE,11.5,-,N/A,,Clear,50,2013-03-18 04:57:00
1:41 AM,48.2,42.8,82,30.13,10.0,NE,10.4,-,N/A,,Mostly Cloudy,50,2013-03-18 05:41:00
1:57 AM,48.0,42.1,80,30.14,10.0,NE,8.1,-,N/A,,Mostly Cloudy,40,2013-03-18 05:57:00
2:57 AM,48.9,43.0,80,30.14,10.0,NE,9.2,-,N/A,,Overcast,40,2013-03-18 06:57:00
3:53 AM,48.2,44.6,87,30.11,10.0,NE,12.7,19.6,N/A,,Overcast,40,2013-03-18 07:53:00
3:57 AM,48.9,44.1,83,30.12,10.0,NE,9.2,19.6,N/A,,Overcast,40,2013-03-18 07:57:00
4:57 AM,48.9,44.1,83,30.11,10.0,NE,9.2,-,N/A,,Mostly Cloudy,40,2013-03-18 08:57:00
5:10 AM,48.2,44.6,87,30.10,10.0,NE,10.4,-,N/A,,Scattered Clouds,40,2013-03-18 09:10:00
5:57 AM,48.0,44.1,86,30.10,10.0,NE,11.5,-,N/A,,Clear,40,2013-03-18 09:57:00
6:23 AM,48.2,44.6,87,30.10,10.0,NNE,8.1,-,N/A,,Scattered Clouds,30,2013-03-18 10:23:00
6:32 AM,48.2,44.6,87,30.11,10.0,NNE,10.4,-,N/A,,Mostly Cloudy,30,2013-03-18 10:32:00
6:57 AM,48.9,44.1,83,30.13,10.0,NNE,9.2,-,N/A,,Overcast,30,2013-03-18 10:57:00
7:57 AM,48.9,44.1,83,30.15,9.0,NNE,8.1,-,N/A,,Overcast,30,2013-03-18 11:57:00
8:57 AM,50.0,45.0,83,30.14,10.0,NNE,10.4,18.4,N/A,,Overcast,20,2013-03-18 12:57:00
9:57 AM,51.1,44.1,77,30.15,10.0,NNE,11.5,19.6,N/A,,Overcast,20,2013-03-18 13:57:00
10:57 AM,53.1,46.0,77,30.13,7.0,NE,10.4,-,N/A,,Mostly Cloudy,40,2013-03-18 14:57:00
11:57 AM,57.0,48.0,72,30.11,10.0,NE,9.2,-,N/A,,Mostly Cloudy,40,2013-03-18 15:57:00
12:57 PM,62.1,51.1,67,30.09,10.0,Variable,4.6,-,N/A,,Mostly Cloudy,0,2013-03-18 16:57:00
1:04 PM,62.6,51.8,68,30.08,10.0,NNE,8.1,-,N/A,,Partly Cloudy,30,2013-03-18 17:04:00
1:57 PM,62.1,51.1,67,30.06,10.0,SSE,6.9,-,N/A,,Scattered Clouds,150,2013-03-18 17:57:00
2:57 PM,62.1,52.0,70,30.02,10.0,South,4.6,-,N/A,,Overcast,170,2013-03-18 18:57:00
3:57 PM,62.1,53.1,72,30.00,10.0,South,6.9,-,N/A,,Mostly Cloudy,170,2013-03-18 19:57:00
4:57 PM,61.0,53.1,75,30.00,10.0,South,6.9,-,N/A,,Scattered Clouds,170,2013-03-18 20:57:00
6:57 PM,55.9,52.0,87,29.98,9.0,SSE,3.5,-,N/A,,Mostly Cloudy,160,2013-03-18 22:57:00
7:57 PM,55.0,52.0,89,29.96,10.0,SE,4.6,-,N/A,,Mostly Cloudy,140,2013-03-18 23:57:00
8:57 PM,55.0,52.0,89,29.95,9.0,SE,3.5,-,N/A,,Mostly Cloudy,140,2013-03-19 00:57:00
9:35 PM,55.4,53.6,94,29.93,8.0,Calm,Calm,-,N/A,,Partly Cloudy,0,2013-03-19 01:35:00
9:57 PM,55.0,53.1,93,29.94,8.0,Calm,Calm,-,N/A,,Clear,0,2013-03-19 01:57:00
10:57 PM,55.0,53.1,93,29.93,8.0,Calm,Calm,-,N/A,,Mostly Cloudy,0,2013-03-19 02:57:00
11:57 PM,55.0,53.1,93,29.93,9.0,North,3.5,-,N/A,,Overcast,360,2013-03-19 03:57:00